Location: Val-d'Or
(48.1170°N, 77.7670°W)
Time: 13:39:44
(UTC-04:00)

OTV 5 (USA 277) - Visible Passes

Search period start: 27 May 2018 00:00
Search period end: 06 June 2018 00:00
Orbit: 308 x 326 km, 54.5° (Epoch: 06 May)

Date Brightness Start Highest point End Pass type
(mag) Time Alt. Az. Time Alt. Az. Time Alt. Az.
31 May ? 03:52:25 10° SSE 03:53:20 11° SE 03:54:15 10° ESE visible
01 Jun ? 04:05:31 12° SSW 04:07:29 25° SE 04:09:50 10° E visible
02 Jun ? 04:19:15 11° SW 04:21:45 58° SE 04:24:30 10° ENE visible
03 Jun ? 03:02:05 16° SE 03:02:08 16° SE 03:04:00 10° E visible
04 Jun ? 03:15:43 31° S 03:16:21 37° SE 03:18:56 10° ENE visible
05 Jun ? 03:29:18 26° WSW 03:30:42 88° SE 03:33:28 10° ENE visible
